Change the Weather History Date:

Saturday, March 2, 2013

  Actual Average Record
Temperature  
Mean Temperature 35 °F 32 °F  
Max Temperature 39 °F 43 °F 69 °F (1991)
Min Temperature 30 °F 21 °F 2 °F (1952)
Degree Days  
Heating Degree Days 30 33  
Month to date heating degree days 56 66  
Since 1 July heating degree days 4177 4637  
Cooling Degree Days 0 0  
Month to date cooling degree days 0 0  
Year to date cooling degree days 0 0  
Moisture  
Dew Point 23 °F    
Average Humidity 64    
Maximum Humidity 78    
Minimum Humidity 50    
Precipitation  
Precipitation T in 0.11 in 1.02 in (2007)
Month to date precipitation T 0.22  
Year to date precipitation 3.66 5.96  
Sea Level Pressure  
Sea Level Pressure 29.73 in    
Wind  
Wind Speed 6 mph (NNW)    
Max Wind Speed 14 mph    
Max Gust Speed 18 mph    
Visibility 9 miles    
Events Snow    
T = Trace of Precipitation, MM = Missing Value Source: NWS Daily Summary

Daily Weather History Graph

Daily Weather History Graph

Search for Another Location

Airport or City:

Trip Planner

Search our weather history database for the weather conditions in past years. The results will help you decide how hot, cold, wet, or windy it might be!

Date:

Astronomy

Mar. 02, 2013 Rise Set
Actual Time 6:28 AM EST 5:47 PM EST
Civil Twilight 6:00 AM EST 6:15 PM EST
Nautical Twilight 5:28 AM EST 6:47 PM EST
Astronomical Twilight 4:56 AM EST 7:19 PM EST
Moon 11:29 PM EST (3/2) 8:49 AM EST (3/2)
Length of Visible Light 12h 14m
Length of Day
11h 19m
Waning Gibbous, 74% of the Moon is Illuminated
Mar 2
Waning Gibbous
Mar 4
Last Quarter
Mar 11
New
Mar 19
First Quarter
Mar 27
Full

Hourly Weather History & Observations

Time (EST) Temp. Windchill Dew Point Humidity Pressure Visibility Wind Dir Wind Speed Gust Speed Precip Events Conditions
12:53 AM 35.1 °F 31.0 °F 23.0 °F 61% 29.76 in 10.0 mi WNW 4.6 mph - N/A   Overcast
1:53 AM 34.0 °F 29.8 °F 23.0 °F 64% 29.75 in 10.0 mi NW 4.6 mph - N/A   Overcast
2:53 AM 34.0 °F 28.8 °F 23.0 °F 64% 29.75 in 10.0 mi NW 5.8 mph - N/A   Overcast
3:53 AM 34.0 °F 28.0 °F 21.9 °F 61% 29.75 in 10.0 mi NW 6.9 mph - N/A   Overcast
4:53 AM 34.0 °F 28.0 °F 21.9 °F 61% 29.75 in 10.0 mi NW 6.9 mph - N/A   Overcast
5:53 AM 33.1 °F 30.0 °F 21.9 °F 64% 29.75 in 10.0 mi NW 3.5 mph - N/A   Overcast
6:53 AM 33.1 °F - 24.1 °F 70% 29.75 in 10.0 mi Calm Calm - N/A   Overcast
7:53 AM 34.0 °F 31.0 °F 23.0 °F 64% 29.76 in 10.0 mi NW 3.5 mph - N/A   Overcast
8:53 AM 35.1 °F 28.6 °F 23.0 °F 61% 29.75 in 10.0 mi NW 8.1 mph - N/A   Overcast
9:53 AM 36.0 °F 30.3 °F 23.0 °F 59% 29.74 in 10.0 mi NNW 6.9 mph - N/A   Overcast
10:53 AM 37.0 °F 31.0 °F 23.0 °F 57% 29.74 in 10.0 mi NW 8.1 mph - N/A   Overcast
11:53 AM 39.0 °F 34.0 °F 24.1 °F 55% 29.72 in 10.0 mi North 6.9 mph - N/A   Overcast
12:53 PM 37.9 °F 31.5 °F 23.0 °F 55% 29.71 in 10.0 mi NW 9.2 mph - N/A   Overcast
1:53 PM 37.9 °F 32.7 °F 24.1 °F 57% 29.70 in 10.0 mi North 6.9 mph - N/A   Overcast
2:53 PM 39.0 °F 35.7 °F 23.0 °F 53% 29.69 in 10.0 mi NNW 4.6 mph - N/A   Overcast
3:53 PM 37.9 °F 32.1 °F 21.9 °F 53% 29.69 in 10.0 mi NW 8.1 mph - N/A   Overcast
4:53 PM 37.0 °F 30.4 °F 23.0 °F 57% 29.69 in 10.0 mi North 9.2 mph - N/A   Overcast
5:53 PM 36.0 °F 30.3 °F 23.0 °F 59% 29.71 in 10.0 mi NNW 6.9 mph - N/A   Overcast
6:53 PM 35.1 °F 26.9 °F 21.9 °F 59% 29.73 in 10.0 mi NNW 11.5 mph - N/A   Overcast
7:53 PM 34.0 °F 28.8 °F 24.1 °F 67% 29.73 in 10.0 mi North 5.8 mph - N/A   Overcast
8:53 PM 32.0 °F 25.6 °F 24.1 °F 73% 29.74 in 7.0 mi North 6.9 mph - 0.00 in   Overcast
9:41 PM 30.2 °F 21.9 °F 24.8 °F 80% 29.75 in 2.5 mi North 9.2 mph - 0.00 in Snow Light Snow
9:53 PM 30.9 °F 26.2 °F 24.1 °F 76% 29.75 in 3.0 mi North 4.6 mph - 0.00 in Snow Light Snow
10:13 PM 30.2 °F - 24.8 °F 80% 29.75 in 3.0 mi Calm Calm - 0.00 in Snow Light Snow
10:53 PM 30.0 °F 24.1 °F 24.1 °F 79% 29.74 in 7.0 mi NNW 5.8 mph - 0.00 in Snow Light Snow
11:50 PM 30.2 °F 26.7 °F 24.8 °F 80% 29.74 in 6.0 mi North 3.5 mph - 0.00 in Snow Light Snow
11:53 PM 30.0 °F 26.5 °F 24.1 °F 79% 29.73 in 6.0 mi North 3.5 mph - 0.00 in Snow Light Snow